Regional Weather Roundup
Issued by NWS

Home | Current Version | Previous Version | Graphics & Text | Print | Product List | Glossary On
Versions: 1 2 3 4 5 6 7 8 9 10 11 12 13 14 15 16 17 18 19 20 21 22 23 24 25 26 27 28 29 30 31 32 33 34 35 36 37 38 39 40 41 42 43 44 45 46 47 48 49 50
000
ASUS45 KPSR 240110
RWRAZ

ARIZONA HOURLY REGIONAL WEATHER ROUNDUP
NATIONAL WEATHER SERVICE PHOENIX AZ
600 PM MST SAT MAY 23 2015

NOTE: FAIR INDICATES FEW OR NO CLOUDS BELOW 12,000 FEET WITH NO
SIGNIFICANT WEATHER AND/OR OBSTRUCTIONS TO VISIBILITY.

AZZ001>003-036-240200-
NORTHWEST ARIZONA

CITY           SKY/WX    TMP DP  RH WIND       PRES   REMARKS
BULLHEAD CITY  PTSUNNY   84  39  20 S20       29.80S
KINGMAN        MOSUNNY   71  36  27 SW17      29.92F
$$

AZZ004>008-015-016-018-240200-
NORTH CENTRAL ARIZONA

CITY           SKY/WX    TMP DP  RH WIND       PRES   REMARKS
GRAND CANYON   CLOUDY    48  44  86 SE5       30.03F
WILLIAMS       PTSUNNY   52  34  50 SW9G15    30.12S
PRESCOTT       FAIR      62  31  31 SW15G21   30.00F
FLAGSTAFF      CLOUDY    51  33  50 SW13      30.06F
PAYSON         MOSUNNY   63  34  34 SW9       30.03S
PAGE           CLOUDY    60  43  53 N6        29.94S
$$

AZZ009>014-017-240200-
NORTHEAST ARIZONA

CITY           SKY/WX    TMP DP  RH WIND       PRES   REMARKS
WINSLOW        CLOUDY    62  36  37 N9        29.97S
SAINT JOHNS    MOSUNNY   63  25  23 W20G25    29.97R
WINDOW ROCK    PTSUNNY   56  27  32 W15G24    30.02R
SHOW LOW       SUNNY     57  27  30 SW14      30.04F
$$

AZZ023-240200-
GREATER PHOENIX AREA

CITY           SKY/WX    TMP DP  RH WIND       PRES   REMARKS
PHOENIX        MOSUNNY   80  34  19 NW7       29.86F
BUCKEYE        SUNNY     81  36  19 S5        29.88F
GLENDALE       MOSUNNY   81  36  19 W7        29.89F
LUKE AFB       SUNNY     80  38  21 S10       29.86F
DEER VALLEY    SUNNY     78  33  19 SW13      29.88F
SCOTTSDALE     MOSUNNY   79  34  19 CALM      29.90F
MESA-FALCON    MOSUNNY   81  36  19 W8        29.88F
MESA-GATEWAY   MOSUNNY   79  36  21 SW5       29.90F
CHANDLER       MOSUNNY   81  34  18 W7        29.88F
$$

AZZ027-028-240200-
SOUTHWEST MARICOPA COUNTY AND PINAL COUNTY

CITY           SKY/WX    TMP DP  RH WIND       PRES   REMARKS
CASA GRANDE    MOSUNNY   79  37  22 W9        29.88S
GILA BEND      FAIR      81  35  19 W8        29.87S
$$

AZZ503-504-507>509-240200-
SOUTHEAST ARIZONA

CITY           SKY/WX    TMP DP  RH WIND       PRES   REMARKS
TUCSON         SUNNY     77  30  17 NW9G18    29.93F
DAVIS-MONTHAN  SUNNY     76  32  19 NW17      29.92S
RYAN FIELD       N/A     79  34  19 NW13G21   29.92F
NOGALES        SUNNY     73  26  17 SW13      29.97F
SIERRA VISTA   SUNNY     70  18  13 W15G23    30.00S
DOUGLAS        SUNNY     74  13   9 SW16G23   29.95S
SAFFORD        SUNNY     76  27  16 NW13G23   29.88S
$$

AZZ020-021-025-026-031-240200-
SOUTHWEST ARIZONA

CITY           SKY/WX    TMP DP  RH WIND       PRES   REMARKS
YUMA           SUNNY     83  40  21 SW9       29.87S
$$

CAZ031-033-041-043-047-048-061-240200-
SOUTHERN CALIFORNIA

CITY           SKY/WX    TMP DP  RH WIND       PRES   REMARKS
DOWNTOWN L.A.  SUNNY     65  51  60 VRB5      30.02R
L.A. AIRPORT   MOSUNNY   62  53  72 W16       30.03F
SAN DIEGO      PTSUNNY   65  51  60 SW8       30.06F
BURBANK        CLOUDY    65  49  56 S9        30.00S
ONTARIO        CLOUDY    65  50  58 W7        30.00F
RIVERSIDE      CLOUDY    67  51  56 CALM      30.00F
PALM SPRINGS   SUNNY     77  47  34 NW28G36   29.87F
EL CENTRO NAS  SUNNY     82  46  28 SW17      29.87F
IMPERIAL       SUNNY     82  47  29 SW14      29.85F
BLYTHE         SUNNY     84  43  23 SW14G21   29.84F
NEEDLES        MOSUNNY   85  36  17 S12G24    29.81F
$$

NVZ020-UTZ003-240200-
SOUTHERN NEVADA-UTAH

CITY           SKY/WX    TMP DP  RH WIND       PRES   REMARKS
LAS VEGAS      PTSUNNY   80  36  20 SW12      29.77F
SALT LAKE CITY PTSUNNY   59  45  59 N12       29.91F
$$

NMZ009-TXZ055-240200-
NEW MEXICO-WEST TEXAS

CITY           SKY/WX    TMP DP  RH WIND       PRES   REMARKS
ALBUQUERQUE    PTSUNNY   69  19  15 W6        29.89F
EL PASO        MOSUNNY   80  12   7 W13G30    29.84R
$$


........................KEY........................
SKY/WX - SKY CONDITION/WEATHER
TMP    - TEMPERATURE IN FAHRENHEIT
DP     - DEW POINT IN FAHRENHEIT
RH     - RELATIVE HUMIDITY IN PERCENT
WIND   - DIRECTION AND SPEED IN MILES PER HOUR (MPH)
VRB    - VARIABLE WIND DIRECTION
PRES   - MEAN SEA LEVEL PRESSURE IN INCHES OF MERCURY
         F - FALLING PRESSURE   R - RISING PRESSURE
         S - STEADY PRESSURE
VSB    - VISIBILITY IN MILES
HX     - HEAT INDEX IN FAHRENHEIT
WCI    - WIND CHILL INDEX IN FAHRENHEIT
TC     - TEMPERATURE IN CELSIUS WHICH IS ALSO KNOWN AS
         TEMPERATURE IN CENTIGRADE
AFB    - AIR FORCE BASE
         LUKE AFB IS LUKE AIR FORCE BASE
         DAVIS-MONTHAN IS DAVIS-MONTHAN AIR FORCE BASE
NAS    - NAVAL AIR STATION
         EL CENTRO NAS IS EL CENTRO NAVAL AIR STATION
N/A    - NOT AVAILABLE




USA.gov is the U.S. government's official web portal to all federal, state and local government web resources and services.